Fort Smith, AR

7:10 AM CDT on April 21, 2018 (GMT -0500)
Fort Smith Regional

Weather History for KFSM - March, 2013

Change the Weather History Date:

Monday, March 11, 2013

  Actual Average Record
Temperature  
Mean Temperature 41 °F 52 °F  
Max Temperature 50 °F 63 °F 92 °F (1967)
Min Temperature 32 °F 40 °F 7 °F (1948)
Degree Days  
Heating Degree Days 24 14  
Month to date heating degree days 191 167  
Since 1 July heating degree days 2514 2840  
Cooling Degree Days 0 0  
Month to date cooling degree days 0 0  
Year to date cooling degree days 1 1  
Moisture  
Dew Point 27 °F    
Average Humidity 56    
Maximum Humidity 76    
Minimum Humidity 36    
Precipitation  
Precipitation 0.00 in 0.12 in 2.97 in (1945)
Month to date precipitation 1.66 1.28  
Year to date precipitation 10.09 6.85  
Sea Level Pressure  
Sea Level Pressure 30.01 in    
Wind  
Wind Speed 10 mph (West)    
Max Wind Speed 22 mph    
Max Gust Speed 29 mph    
Visibility 10 miles    
Events      
T = Trace of Precipitation, MM = Missing Value Source: NWS Daily Summary

Daily Weather History Graph

Daily Weather History Graph

Search for Another Location

Airport or City:

Astronomy

Mar. 11, 2013 Rise Set
Actual Time 7:33 AM CDT 7:21 PM CDT
Civil Twilight 7:08 AM CDT 7:47 PM CDT
Nautical Twilight 6:38 AM CDT 8:16 PM CDT
Astronomical Twilight 6:09 AM CDT 8:46 PM CDT
Moon 7:08 AM CDT (3/11) 7:32 PM CDT (3/11)
Length of Visible Light 12h 39m
Length of Day
11h 48m
Waning Crescent, 0% of the Moon is Illuminated
Mar 11
Waning Crescent
Mar 11
New
Mar 19
First Quarter
Mar 27
Full
Apr 2
Last Quarter

Hourly Weather History & Observations

Time (CDT) Temp. Windchill Dew Point Humidity Pressure Visibility Wind Dir Wind Speed Gust Speed Precip Events Conditions
12:40 AM 35.6 °F 24.8 °F 26.6 °F 70% 30.00 in 10.0 mi WNW 19.6 mph 25.3 mph N/A   Overcast
12:53 AM 36.0 °F 25.6 °F 26.1 °F 67% 30.00 in 10.0 mi WNW 18.4 mph 24.2 mph N/A   Overcast
1:02 AM 35.6 °F 25.9 °F 26.6 °F 70% 29.99 in 10.0 mi NW 16.1 mph - N/A   Overcast
1:42 AM 35.6 °F 25.9 °F 24.8 °F 65% 29.98 in 10.0 mi WNW 16.1 mph - N/A   Overcast
1:53 AM 35.1 °F 26.4 °F 26.1 °F 70% 29.99 in 10.0 mi WNW 12.7 mph - N/A   Overcast
2:53 AM 35.1 °F 27.9 °F 26.1 °F 70% 30.02 in 10.0 mi West 9.2 mph - N/A   Overcast
3:30 AM 35.6 °F 26.2 °F 24.8 °F 65% 30.01 in 10.0 mi West 15.0 mph 20.7 mph N/A   Overcast
3:53 AM 35.1 °F 26.9 °F 25.0 °F 67% 30.01 in 10.0 mi WNW 11.5 mph 20.7 mph N/A   Overcast
4:37 AM 35.6 °F 28.0 °F 24.8 °F 65% 30.00 in 10.0 mi West 10.4 mph - N/A   Overcast
4:46 AM 35.6 °F 28.6 °F 24.8 °F 65% 29.99 in 10.0 mi WNW 9.2 mph - N/A   Overcast
4:53 AM 35.1 °F 27.9 °F 25.0 °F 67% 30.00 in 10.0 mi WNW 9.2 mph - N/A   Overcast
5:53 AM 33.1 °F 25.5 °F 25.0 °F 72% 29.99 in 10.0 mi West 9.2 mph - N/A   Clear
6:53 AM 33.1 °F 24.4 °F 25.0 °F 72% 30.00 in 10.0 mi West 11.5 mph - N/A   Partly Cloudy
7:53 AM 32.0 °F 24.8 °F 25.0 °F 75% 30.01 in 10.0 mi West 8.1 mph - N/A   Clear
8:38 AM 33.8 °F 26.4 °F 24.8 °F 70% 30.02 in 10.0 mi WNW 9.2 mph - N/A   Mostly Cloudy
8:53 AM 34.0 °F 26.0 °F 25.0 °F 70% 30.03 in 10.0 mi West 10.4 mph - N/A   Mostly Cloudy
9:34 AM 35.6 °F 27.1 °F 26.6 °F 70% 30.04 in 10.0 mi West 12.7 mph 20.7 mph N/A   Scattered Clouds
9:53 AM 36.0 °F 26.7 °F 26.1 °F 67% 30.04 in 10.0 mi West 15.0 mph - N/A   Partly Cloudy
10:53 AM 39.0 °F 32.8 °F 27.0 °F 62% 30.04 in 10.0 mi West 9.2 mph - N/A   Partly Cloudy
11:53 AM 41.0 °F 32.8 °F 27.0 °F 57% 30.05 in 10.0 mi West 16.1 mph 19.6 mph N/A   Partly Cloudy
12:53 PM 44.1 °F 37.4 °F 28.9 °F 55% 30.03 in 10.0 mi West 13.8 mph - N/A   Partly Cloudy
1:53 PM 46.0 °F 38.5 °F 30.0 °F 54% 30.02 in 10.0 mi West 19.6 mph 25.3 mph N/A   Partly Cloudy
2:53 PM 46.9 °F - 28.9 °F 50% 30.00 in 10.0 mi West 10.4 mph 23.0 mph N/A   Clear
3:53 PM 48.0 °F - 28.0 °F 46% 29.99 in 10.0 mi West 13.8 mph - N/A   Clear
4:53 PM 50.0 °F - 26.1 °F 39% 29.99 in 10.0 mi West 15.0 mph 23.0 mph N/A   Clear
5:53 PM 50.0 °F - 24.1 °F 36% 30.00 in 10.0 mi West 15.0 mph - N/A   Clear
6:53 PM 48.0 °F - 25.0 °F 41% 30.00 in 10.0 mi West 10.4 mph - N/A   Clear
7:53 PM 44.1 °F 40.1 °F 27.0 °F 51% 30.01 in 10.0 mi West 6.9 mph - N/A   Clear
8:53 PM 44.1 °F - 28.9 °F 55% 30.02 in 10.0 mi Calm Calm - N/A   Clear
9:53 PM 41.0 °F 39.0 °F 30.0 °F 65% 30.05 in 10.0 mi SW 3.5 mph - N/A   Clear
10:53 PM 39.0 °F 36.8 °F 32.0 °F 76% 30.07 in 10.0 mi West 3.5 mph - N/A   Clear
11:53 PM 37.0 °F - 30.0 °F 76% 30.07 in 10.0 mi Calm Calm - N/A   Clear